• In Slovakia
  • List of Countries
  • For 7 days
  • Water Temperature
  • Satellite Maps
  • Weather Map
  • Weather Widgets
  • user-avatar
    Login

    Hourly Weather La Ceiba

    Today, 18 February, Sunday

    Time Temperature Precipitation Wind Pressure Humidity
    00:00 +22°C° 0 mm 4 mps 762 mmHg 98%
    01:00 +22°C° 0 mm 4 mps 762 mmHg 97%
    02:00 +22°C° 0 mm 4 mps 762 mmHg 97%
    03:00 +22°C° 0 mm 3 mps 762 mmHg 96%
    04:00 +21°C° 0 mm 3 mps 762 mmHg 96%
    05:00 +21°C° 0 mm 3 mps 762 mmHg 96%
    06:00 +21°C° 0 mm 3 mps 762 mmHg 96%
    07:00 +25°C° 0 mm 3 mps 762 mmHg 85%
    08:00 +27°C° 0 mm 3 mps 763 mmHg 73%
    09:00 +30°C° 0 mm 2 mps 763 mmHg 62%
    10:00 +31°C° 0 mm 3 mps 763 mmHg 54%
    11:00 +34°C° 0 mm 3 mps 762 mmHg 46%
    12:00 +35°C° 0 mm 4 mps 762 mmHg 38%
    13:00 +34°C° 0 mm 5 mps 761 mmHg 43%
    14:00 +34°C° 0 mm 5 mps 761 mmHg 49%
    15:00 +33°C° 0 mm 6 mps 760 mmHg 54%
    16:00 +30°C° 0.1 mm 6 mps 760 mmHg 67%
    17:00 +27°C° 0.1 mm 6 mps 760 mmHg 80%
    18:00 +25°C° 0.1 mm 5 mps 761 mmHg 93%
    19:00 +25°C° 0.1 mm 5 mps 761 mmHg 94%
    20:00 +23°C° 0.1 mm 5 mps 762 mmHg 96%
    21:00 +22°C° 0.1 mm 4 mps 762 mmHg 98%
    22:00 +22°C° 0 mm 4 mps 762 mmHg 98%
    23:00 +22°C° 0 mm 4 mps 762 mmHg 98%

    Tomorrow, 19 February, Monday

    Time Temperature Precipitation Wind Pressure Humidity
    00:00 +21°C° 0 mm 4 mps 762 mmHg 97%
    01:00 +21°C° 0 mm 4 mps 761 mmHg 98%
    02:00 +21°C° 0 mm 3 mps 761 mmHg 98%
    03:00 +20°C° 0 mm 3 mps 761 mmHg 98%
    04:00 +20°C° 0 mm 3 mps 761 mmHg 97%
    05:00 +20°C° 0 mm 3 mps 761 mmHg 97%
    06:00 +19°C° 0 mm 3 mps 761 mmHg 97%
    07:00 +23°C° 0 mm 2 mps 762 mmHg 82%
    08:00 +26°C° 0 mm 2 mps 762 mmHg 67%
    09:00 +29°C° 0 mm 2 mps 763 mmHg 52%
    10:00 +31°C° 0 mm 2 mps 762 mmHg 49%
    11:00 +33°C° 0 mm 3 mps 762 mmHg 46%
    12:00 +35°C° 0 mm 3 mps 761 mmHg 42%
    13:00 +34°C° 0 mm 4 mps 760 mmHg 49%
    14:00 +33°C° 0 mm 4 mps 760 mmHg 56%
    15:00 +32°C° 0 mm 5 mps 759 mmHg 62%
    16:00 +29°C° 0.4 mm 5 mps 759 mmHg 72%
    17:00 +27°C° 0.4 mm 5 mps 759 mmHg 83%
    18:00 +25°C° 0.4 mm 5 mps 760 mmHg 93%
    19:00 +25°C° 0.1 mm 5 mps 760 mmHg 94%
    20:00 +23°C° 0.1 mm 5 mps 761 mmHg 94%
    21:00 +23°C° 0.1 mm 5 mps 761 mmHg 95%
    22:00 +22°C° 0 mm 4 mps 761 mmHg 95%
    23:00 +22°C° 0 mm 4 mps 761 mmHg 94%

    Day after tomorrow, 20 February, Tuesday

    Time Temperature Precipitation Wind Pressure Humidity
    00:00 +22°C° 0 mm 4 mps 761 mmHg 94%
    01:00 +22°C° 0 mm 4 mps 761 mmHg 94%
    02:00 +22°C° 0 mm 3 mps 760 mmHg 94%
    03:00 +21°C° 0 mm 3 mps 760 mmHg 94%
    04:00 +21°C° 0 mm 3 mps 760 mmHg 94%
    05:00 +21°C° 0 mm 3 mps 760 mmHg 94%
    06:00 +21°C° 0 mm 3 mps 761 mmHg 94%
    07:00 +25°C° 0 mm 3 mps 761 mmHg 83%
    08:00 +27°C° 0 mm 3 mps 762 mmHg 72%
    09:00 +30°C° 0 mm 2 mps 762 mmHg 61%
    10:00 +31°C° 0 mm 3 mps 762 mmHg 57%
    11:00 +33°C° 0 mm 3 mps 761 mmHg 53%
    12:00 +34°C° 0 mm 4 mps 761 mmHg 49%
    13:00 +33°C° 0 mm 4 mps 760 mmHg 54%
    14:00 +33°C° 0 mm 4 mps 760 mmHg 59%
    15:00 +32°C° 0 mm 5 mps 759 mmHg 63%
    16:00 +29°C° 0.3 mm 5 mps 760 mmHg 73%
    17:00 +28°C° 0.3 mm 5 mps 760 mmHg 82%
    18:00 +26°C° 0.3 mm 5 mps 761 mmHg 91%
    19:00 +25°C° 0 mm 5 mps 761 mmHg 92%
    20:00 +25°C° 0 mm 5 mps 762 mmHg 93%
    21:00 +23°C° 0 mm 5 mps 762 mmHg 94%
    22:00 +23°C° 0 mm 5 mps 762 mmHg 94%
    23:00 +23°C° 0 mm 5 mps 762 mmHg 94%

    21 February, Wednesday

    Time Temperature Precipitation Wind Pressure Humidity
    00:00 +22°C° 0 mm 5 mps 762 mmHg 94%
    01:00 +22°C° 0 mm 4 mps 762 mmHg 94%
    02:00 +22°C° 0 mm 4 mps 761 mmHg 94%
    03:00 +22°C° 0 mm 4 mps 761 mmHg 94%
    04:00 +22°C° 0 mm 4 mps 761 mmHg 94%
    05:00 +22°C° 0 mm 4 mps 762 mmHg 94%
    06:00 +21°C° 0 mm 4 mps 762 mmHg 95%
    07:00 +25°C° 0 mm 3 mps 762 mmHg 83%
    08:00 +28°C° 0 mm 3 mps 763 mmHg 72%
    09:00 +30°C° 0 mm 3 mps 763 mmHg 61%
    10:00 +32°C° 0 mm 4 mps 763 mmHg 56%
    11:00 +33°C° 0 mm 4 mps 762 mmHg 51%
    12:00 +35°C° 0 mm 5 mps 762 mmHg 46%
    13:00 +34°C° 0 mm 5 mps 761 mmHg 50%
    14:00 +34°C° 0 mm 6 mps 761 mmHg 54%
    15:00 +33°C° 0 mm 6 mps 760 mmHg 59%
    16:00 +30°C° 0.6 mm 6 mps 761 mmHg 69%
    17:00 +28°C° 0.6 mm 6 mps 761 mmHg 80%
    18:00 +26°C° 0.6 mm 7 mps 762 mmHg 91%
    19:00 +24°C° 0.1 mm 6 mps 762 mmHg 92%
    20:00 +24°C° 0.1 mm 6 mps 763 mmHg 94%
    21:00 +23°C° 0.1 mm 6 mps 763 mmHg 95%
    22:00 +23°C° 0 mm 6 mps 763 mmHg 95%
    23:00 +23°C° 0 mm 5 mps 763 mmHg 95%

    22 February, Thursday

    Time Temperature Precipitation Wind Pressure Humidity
    00:00 +22°C° 0 mm 5 mps 763 mmHg 95%
    01:00 +22°C° 0 mm 5 mps 762 mmHg 95%
    02:00 +22°C° 0 mm 4 mps 762 mmHg 96%
    03:00 +21°C° 0 mm 4 mps 762 mmHg 96%
    04:00 +21°C° 0 mm 4 mps 762 mmHg 96%
    05:00 +21°C° 0 mm 3 mps 762 mmHg 96%
    06:00 +21°C° 0 mm 3 mps 763 mmHg 95%
    07:00 +25°C° 0 mm 3 mps 763 mmHg 84%
    08:00 +28°C° 0 mm 2 mps 763 mmHg 72%
    09:00 +31°C° 0 mm 2 mps 764 mmHg 60%
    10:00 +31°C° 0 mm 3 mps 763 mmHg 58%
    11:00 +33°C° 0 mm 4 mps 763 mmHg 56%
    12:00 +33°C° 0 mm 4 mps 763 mmHg 54%
    13:00 +32°C° 0.5 mm 5 mps 762 mmHg 63%
    14:00 +30°C° 0.5 mm 5 mps 761 mmHg 73%
    15:00 +29°C° 0.5 mm 5 mps 761 mmHg 83%
    16:00 +28°C° 0.9 mm 5 mps 761 mmHg 87%
    17:00 +27°C° 0.9 mm 5 mps 761 mmHg 92%
    18:00 +25°C° 0.9 mm 5 mps 762 mmHg 96%
    19:00 +25°C° 0.1 mm 5 mps 762 mmHg 97%
    20:00 +23°C° 0.1 mm 5 mps 762 mmHg 97%
    21:00 +23°C° 0.1 mm 5 mps 763 mmHg 97%
    22:00 +23°C° 0 mm 5 mps 763 mmHg 97%
    23:00 +22°C° 0 mm 5 mps 763 mmHg 98%

    23 February, Friday

    Time Temperature Precipitation Wind Pressure Humidity
    00:00 +22°C° 0 mm 4 mps 763 mmHg 98%
    01:00 +22°C° 0 mm 4 mps 762 mmHg 98%
    02:00 +22°C° 0 mm 4 mps 762 mmHg 97%
    03:00 +21°C° 0 mm 3 mps 762 mmHg 97%
    04:00 +21°C° 0 mm 3 mps 762 mmHg 97%
    05:00 +21°C° 0 mm 3 mps 762 mmHg 97%
    06:00 +21°C° 0 mm 2 mps 762 mmHg 97%
    07:00 +24°C° 0 mm 2 mps 762 mmHg 86%
    08:00 +27°C° 0 mm 2 mps 763 mmHg 75%
    09:00 +30°C° 0 mm 1 mps 763 mmHg 65%
    10:00 +31°C° 0 mm 2 mps 763 mmHg 60%
    11:00 +33°C° 0 mm 3 mps 762 mmHg 56%
    12:00 +34°C° 0 mm 3 mps 762 mmHg 51%
    13:00 +33°C° 0.4 mm 4 mps 761 mmHg 61%
    14:00 +32°C° 0.4 mm 4 mps 760 mmHg 71%
    15:00 +30°C° 0.4 mm 5 mps 760 mmHg 80%
    16:00 +28°C° 0.7 mm 5 mps 760 mmHg 85%
    17:00 +27°C° 0.7 mm 5 mps 760 mmHg 90%
    18:00 +25°C° 0.7 mm 5 mps 760 mmHg 95%
    19:00 +25°C° 0.2 mm 5 mps 761 mmHg 95%
    20:00 +23°C° 0.2 mm 5 mps 761 mmHg 96%
    21:00 +23°C° 0.2 mm 5 mps 762 mmHg 97%
    22:00 +22°C° 0 mm 4 mps 761 mmHg 96%
    23:00 +22°C° 0 mm 4 mps 761 mmHg 96%
    Show more